DateTimeUTC,F1_A11,F1_S11,BsB_S11,BsG_S11,BsR_S11,BbsB_S11,BbsG_S11,BbsR_S11,BaB_A11,BaG_A11,BaR_A11,Tu_S11,T_S11,Uu_S11,U_S11,P_S11,T1_A11
2021-08-04T03:00:00Z,00000200,20000000,,,,,,,0000.15,-000.19,0000.03,17.8,25.0,01.7,01.1,0670.4,30.9
2021-08-04T03:01:00Z,00000200,20000000,,,,,,,0000.49,0000.62,0000.49,17.8,25.0,01.7,01.1,0670.4,30.9
2021-08-04T03:02:00Z,00000200,20000000,,,,,,,0000.16,0000.50,0000.13,17.8,25.0,01.7,01.1,0670.4,30.9
2021-08-04T03:03:00Z,00000200,60000000,,,,,,,0000.01,0000.02,0000.07,17.9,25.0,01.7,01.1,0670.4,31.0
2021-08-04T03:04:00Z,00000200,40000000,0000.54,0000.11,-000.34,0000.06,-000.11,-000.26,0000.26,-000.30,0000.27,18.3,24.9,02.2,01.4,0671.3,30.9
2021-08-04T03:05:00Z,00000200,00000000,0000.15,0000.16,-000.07,-000.18,0000.08,-000.26,-000.58,0000.02,-000.43,18.3,24.9,02.1,01.4,0671.3,30.9
2021-08-04T03:06:00Z,00000200,01000000,0000.52,-000.10,0000.02,-000.17,-000.21,-000.04,-000.55,-000.79,-000.96,18.3,24.9,02.1,01.4,0671.3,31.0
2021-08-04T03:07:00Z,00000200,01000000,0000.33,-000.02,-000.03,0000.42,-000.07,-000.08,0000.14,-000.11,0000.12,18.2,24.9,01.9,01.3,0671.3,30.9
2021-08-04T03:08:00Z,00000200,01000000,0000.14,0000.17,-000.26,-000.01,-000.10,-000.13,-000.03,0000.22,0000.31,18.2,24.8,01.9,01.3,0671.3,30.9
2021-08-04T03:09:00Z,00000200,00000000,-000.06,0000.37,-000.02,0000.34,0000.25,-000.00,0000.26,0000.14,0000.22,18.2,24.8,01.9,01.3,0671.2,30.9
2021-08-04T03:10:00Z,00000200,00000000,-000.59,0000.40,0000.02,-000.48,-000.26,-000.18,0000.52,0000.67,0000.64,18.1,24.8,02.2,01.5,0671.2,30.9
2021-08-04T03:11:00Z,00000200,00000000,0000.02,0000.66,0000.38,0000.25,-000.02,0000.12,0004.73,0005.02,0004.98,18.1,24.8,02.7,01.8,0671.2,30.9
2021-08-04T03:12:00Z,00000200,00000000,0000.06,0000.37,-000.09,-000.04,0000.25,-000.21,-002.83,-003.21,-003.27,18.1,24.7,04.0,02.7,0671.2,30.9
2021-08-04T03:13:00Z,00000200,00000000,0000.35,0000.18,-000.27,-000.21,-000.00,-000.20,-001.07,-000.89,-000.91,18.0,24.7,02.8,01.9,0671.2,30.9
2021-08-04T03:14:00Z,00000200,00000000,-000.34,0000.25,-000.04,-000.16,0000.17,-000.06,-000.80,-000.88,-000.38,18.0,24.7,02.5,01.7,0671.2,30.9
2021-08-04T03:15:00Z,00000200,00000000,-000.09,-000.20,0000.09,0000.06,-000.23,0000.27,-000.20,-000.57,-001.03,18.0,24.7,02.1,01.4,0671.2,30.9
2021-08-04T03:16:00Z,00000200,01000000,0000.09,0000.23,-000.10,-000.13,-000.03,-000.17,-000.36,-000.04,0000.05,18.0,24.7,01.8,01.2,0671.2,30.9
2021-08-04T03:17:00Z,00000200,01000000,-000.31,0000.37,-000.19,-000.33,-000.03,-000.13,0001.15,0001.15,0000.83,18.2,24.7,02.1,01.4,0671.2,30.9
2021-08-04T03:18:00Z,00000200,01000000,-000.34,0000.42,-000.28,-000.04,0000.07,-000.25,0000.41,0000.25,0000.55,18.3,24.7,02.1,01.4,0671.2,30.9
2021-08-04T03:19:00Z,00000200,00000000,-000.62,0000.02,-000.30,-000.23,0000.18,0000.11,0000.45,0000.60,0000.46,18.3,24.8,02.3,01.5,0671.1,31.0
2021-08-04T03:20:00Z,00000200,00000000,0000.07,0000.19,-000.05,-000.01,-000.18,-000.18,-000.09,-000.02,-000.16,18.4,24.8,02.5,01.7,0671.2,30.9
2021-08-04T03:21:00Z,00000200,00000000,-000.15,-000.32,0000.09,-000.26,0000.13,-000.22,-000.16,0000.02,-000.05,18.4,24.8,02.6,01.8,0671.2,30.9
2021-08-04T03:22:00Z,00000200,00000000,0000.02,0000.06,0000.17,-000.51,0000.09,0000.14,0000.16,-000.19,0000.13,18.3,24.8,02.7,01.8,0671.1,30.9
2021-08-04T03:23:00Z,00000200,00000000,0000.00,0000.18,0000.02,0000.48,-000.35,0000.03,0000.46,0000.57,0000.47,18.3,24.8,02.7,01.8,0671.1,30.9
2021-08-04T03:24:00Z,00000200,00000000,0000.33,-000.00,-000.17,-000.54,-000.05,0000.27,0000.51,0000.31,0000.58,18.2,24.7,02.9,01.9,0671.1,30.9
2021-08-04T03:25:00Z,00000200,00000000,-000.05,0000.16,-000.07,-000.42,-000.34,-000.01,-000.06,-000.14,-000.26,18.2,24.7,03.0,02.0,0671.1,30.9
2021-08-04T03:26:00Z,00000200,00000000,0000.31,0000.13,-000.11,-000.43,0000.12,0000.10,-000.33,0000.26,-000.15,18.1,24.7,03.1,02.1,0671.1,30.9
2021-08-04T03:27:00Z,00000200,00000000,-000.79,0000.31,-000.16,0000.43,-000.07,-000.15,0000.33,-000.13,0000.36,18.1,24.6,02.9,01.9,0671.1,30.9
2021-08-04T03:28:00Z,00000200,00000000,0000.84,-000.08,0000.25,0000.15,0000.07,-000.03,-000.35,-000.57,-000.74,18.1,24.6,02.8,01.9,0671.1,30.9
2021-08-04T03:29:00Z,00000200,00000000,0000.11,0000.46,0000.12,-000.27,-000.02,0000.15,0000.05,0000.06,-000.14,18.0,24.6,02.7,01.8,0671.0,30.9
2021-08-04T03:30:00Z,00000200,00000000,-000.68,0000.20,-000.32,-000.55,0000.00,-000.14,-000.09,0000.18,0000.32,18.0,24.6,02.6,01.7,0671.0,30.9
2021-08-04T03:31:00Z,00000200,00000000,0001.53,0000.93,0000.31,0000.37,-000.15,0000.25,0000.79,0000.93,0000.56,18.0,24.6,02.7,01.8,0671.0,30.9
2021-08-04T03:32:00Z,00000200,00000000,0002.67,0002.01,0000.82,0000.10,0000.05,0000.16,0000.89,0000.76,0000.93,18.2,24.6,02.9,01.9,0671.0,30.9
2021-08-04T03:33:00Z,00000200,00000000,0004.05,0002.65,0001.20,0000.67,0000.26,0000.06,0000.95,0000.60,0000.38,18.3,24.7,03.0,02.0,0671.0,31.0
2021-08-04T03:34:00Z,00000200,00000000,0003.26,0002.14,0001.08,0000.27,0000.42,0000.06,0000.60,0000.72,0000.28,18.4,24.8,02.8,01.9,0671.0,31.0
2021-08-04T03:35:00Z,00000200,00000000,0000.17,0000.21,0000.37,0000.78,0000.04,-000.20,0000.38,0000.60,0000.24,18.4,24.8,02.8,01.9,0671.0,30.9
2021-08-04T03:36:00Z,00000200,00000000,0000.21,-000.22,-000.18,-000.09,0000.08,0000.10,-000.81,-001.07,-000.76,18.4,24.8,02.6,01.8,0671.0,30.9
2021-08-04T03:37:00Z,00000200,00000000,0000.21,0000.33,-000.06,-000.37,-000.13,-000.02,-000.40,-000.42,-000.24,18.4,24.8,02.3,01.6,0671.0,30.9
2021-08-04T03:38:00Z,00000200,00000000,-000.06,0000.09,-000.30,0000.10,-000.02,0000.08,-000.44,-000.45,-000.48,18.3,24.8,02.2,01.5,0670.9,30.9
2021-08-04T03:39:00Z,00000200,00000000,-000.34,-000.17,-000.14,-000.47,-000.34,-000.34,-000.34,-000.23,-000.05,18.3,24.7,02.1,01.4,0670.9,30.9
2021-08-04T03:40:00Z,00000200,00000000,0000.26,0000.16,-000.23,-000.04,-000.00,-000.19,0000.20,-000.21,-000.14,18.2,24.7,02.0,01.4,0670.9,30.9
2021-08-04T03:41:00Z,00000200,01000000,-000.03,0000.36,-000.18,0000.01,-000.00,0000.32,-000.59,-000.48,-000.63,18.2,24.7,01.9,01.2,0670.9,30.9
2021-08-04T03:42:00Z,00000200,01000000,0000.31,0000.04,-000.04,-000.23,0000.34,0000.18,-000.48,-000.50,-000.43,18.1,24.6,01.7,01.2,0670.9,30.9
2021-08-04T03:43:00Z,00000200,01000000,-000.39,0000.21,0000.25,0000.26,-000.15,-000.04,0000.00,0000.27,-000.21,18.1,24.6,01.6,01.1,0670.9,30.9
2021-08-04T03:44:00Z,00000200,01000000,0000.95,0000.17,-000.17,0000.12,-000.24,-000.23,0000.10,-000.27,0000.08,18.0,24.6,01.5,01.0,0670.9,30.9
2021-08-04T03:45:00Z,00000200,01000000,-000.29,0000.22,-000.19,-000.15,0000.23,0000.39,0001.40,0001.47,0001.71,18.0,24.6,01.6,01.1,0670.9,30.9
2021-08-04T03:46:00Z,00000200,00000000,-000.22,0000.33,-000.07,0000.40,-000.09,-000.09,0001.45,0001.83,0001.71,18.1,24.6,02.2,01.5,0670.9,30.9
2021-08-04T03:47:00Z,00000200,00000000,0001.16,0000.76,0000.53,0000.18,0000.16,0000.10,0008.29,0008.77,0008.64,18.2,24.6,03.8,02.5,0670.9,30.9
2021-08-04T03:48:00Z,00000200,00000000,0000.52,-000.28,-000.16,-000.26,-000.03,-000.34,-003.44,-003.80,-003.85,18.3,24.7,05.1,03.5,0670.9,30.9
2021-08-04T03:49:00Z,00000200,00000000,-000.43,0000.22,-000.14,-000.24,0000.19,-000.18,-001.02,-001.17,-001.49,18.4,24.7,03.6,02.4,0670.9,31.0
2021-08-04T03:50:00Z,00000200,00000000,0000.41,-000.05,-000.13,-000.02,0000.25,-000.05,-000.89,-001.05,-000.76,18.4,24.8,03.1,02.1,0670.9,30.9
2021-08-04T03:51:00Z,00000200,00000000,-000.17,0000.06,-000.08,0000.01,0000.30,-000.21,-000.53,-000.47,-000.42,18.4,24.8,02.9,02.0,0670.9,30.9
2021-08-04T03:52:00Z,00000200,00000000,0000.03,0000.16,-000.33,-000.02,0000.02,-000.33,0000.36,0000.29,-000.15,18.3,24.7,02.8,01.9,0670.9,30.9
2021-08-04T03:53:00Z,00000200,00000000,-000.21,0000.16,-000.00,0000.18,-000.08,0000.19,0001.03,0001.27,0001.38,18.3,24.7,03.1,02.1,0670.8,30.9
2021-08-04T03:54:00Z,00000200,00000000,0004.82,0003.87,0002.33,0000.38,0000.59,0000.47,0003.14,0002.82,0002.81,18.2,24.7,03.7,02.5,0670.8,30.9
2021-08-04T03:55:00Z,00000200,00000000,0005.92,0004.58,0002.69,0000.43,0000.70,0000.43,0003.08,0002.81,0002.07,18.2,24.6,04.8,03.2,0670.8,30.9
2021-08-04T03:56:00Z,00000200,00000000,0007.39,0004.81,0003.19,0000.44,0000.79,0000.76,0001.77,0002.23,0002.01,18.1,24.6,05.2,03.5,0670.8,30.9
2021-08-04T03:57:00Z,00000200,40000000,,,,,,,-000.69,-001.28,-001.21,18.2,24.6,05.8,03.9,0670.7,30.9
2021-08-04T03:58:00Z,00000200,60000000,,,,,,,0000.20,0000.51,-000.08,17.8,24.8,04.7,03.0,0669.7,30.9
2021-08-04T03:59:00Z,00000200,20000000,,,,,,,-000.80,-001.04,-000.80,17.8,24.9,04.6,03.0,0669.7,30.9
